Station 44025 (LLNR 830) - LONG ISLAND - 30 NM South of Islip, NY Image indicating link to RSS feed of recent meteorological observations for station 44025


Conditions at 44025 as of
(7:40 pm EDT)
2340 GMT on 05/20/2024:
     

Click on the graph icon in the table below to see a time series plot of the last five days of that observation.

5-day plot - Wind Direction Wind Direction (WDIR): SE ( 140 deg true )
5-day plot - Wind Speed Wind Speed (WSPD): 7.8 kts
5-day plot - Wind Gust Wind Gust (GST): 9.7 kts
5-day plot - Atmospheric Pressure Atmospheric Pressure (PRES):30.01 in
5-day plot - Air Temperature Air Temperature (ATMP): 53.6 °F
5-day plot - Water Temperature Water Temperature (WTMP): 53.8 °F
5-day plot - Dew Point Dew Point (DEWP): 52.5 °F
5-day plot - Wind Chill Wind Chill (CHILL): 50.9 °F
5-day plot - Wind Speed at 10 Meters Wind Speed at 10 meters (WSPD10M): 7.8 kts
5-day plot - Wind Speed at 20 Meters Wind Speed at 20 meters (WSPD20M): 7.8 kts
5-day plot -  Wind Speed, Wind Gust and Atmospheric Pressure Combined plot of Wind Speed, Gust, and Air Pressure
Supplemental Measurements
Highest 1-minute Wind Speed
Time (EDT)5-day plot - 1-Minute Wind Speed WSPD 5-day plot - 1-Minute Wind Direction WDIR
7:39 pm 7.8 kts-
Previous observations
TIME
(EDT)
5-day plot - Wind Direction
WDIR
 
5-day plot - Wind Speed
WSPD
kts
5-day plot - Wind Gust
GST
kts
5-day plot - Wave Height
WVHT
ft
5-day plot - Dominant Wave Period
DPD
sec
5-day plot - Average Wave Period
APD
sec
5-day plot - Mean Wave Direction
MWD
 
5-day plot - Atmospheric Pressure
PRES
in
5-day plot - Pressure Tendency
PTDY
in
5-day plot - Air Temperature
ATMP
°F
5-day plot - Water Temperature
WTMP
°F
5-day plot - Dew Point
DEWP
°F
5-day plot - Salinity
SAL
psu
5-day plot - Visibility
VIS
nmi
5-day plot - Tide (above MLLW)
TIDE
ft
2024-05-20 07:20 pmSSE 5.8 7.8 3.0 85.7 E30.02- 54.0 52.5 52.7---
2024-05-20 07:10 pmSSE 5.8 7.8 3.0-5.7 E30.01- 54.0 52.2 52.5---
2024-05-20 07:00 pmSSE 5.8 5.8----30.02-0.02 54.1 52.3 52.7---
2024-05-20 06:50 pmSSE 5.8 7.8 3.0 75.8 E30.02- 54.1 52.7 52.5---
2024-05-20 06:40 pmSSE 5.8 5.8----30.02- 54.3 52.9 52.7---
2024-05-20 06:30 pmSSE 5.8 5.8----30.02- 54.3 52.7 52.5---
2024-05-20 06:20 pmSSE 5.8 5.8 2.6 85.7 E30.02- 54.5 52.7 52.7---
2024-05-20 06:10 pm S 5.8 5.8 2.6-5.7 E30.03- 54.5 52.7 52.7---
2024-05-20 06:00 pm S 5.8 5.8----30.03-0.01 54.7 52.5 52.9---
2024-05-20 05:50 pm S 3.9 5.8 3.0 85.9 E30.03- 54.7 52.5 52.7---
2024-05-20 05:40 pmSSE 3.9 5.8----30.03- 54.9 52.9 52.9---
2024-05-20 05:30 pm S 3.9 5.8----30.03- 54.9 52.7 52.9---
2024-05-20 05:20 pm S 5.8 5.8 3.0 85.8 E30.03- 54.9 52.7 52.9---
2024-05-20 05:10 pm S 5.8 5.8 3.0-5.8 E30.03- 54.9 52.3 52.9---
2024-05-20 05:00 pmSSE 5.8 5.8----30.03-0.02 55.0 52.2 52.9---
2024-05-20 04:50 pmSSE 3.9 5.8 3.0 75.6 E30.03- 55.0 51.4 52.9---
2024-05-20 04:40 pmSSE 3.9 5.8 3.0-5.6 E30.03- 55.0 51.3 52.9---
2024-05-20 04:30 pm SE 5.8 7.8----30.03- 55.2 52.3 53.1---
2024-05-20 04:20 pmSSE 5.8 7.8 3.3 75.8 E30.03- 55.4 52.5 52.9---
2024-05-20 04:10 pm SE 5.8 7.8 3.3-5.8 E30.04- 55.6 52.5 53.1---
2024-05-20 04:00 pm SE 5.8 7.8----30.04-0.04 55.6 52.3 52.9---
2024-05-20 03:50 pm SE 5.8 7.8 3.0 85.6ENE30.04- 55.8 52.3 52.9---
2024-05-20 03:40 pm SE 5.8 5.8 3.0-5.6ENE30.04- 56.1 52.3 53.6---
2024-05-20 03:30 pm SE 5.8 7.8----30.03- 56.5 52.3 53.6---
2024-05-20 03:20 pm SE 5.8 7.8 3.0 75.6 E30.04- 56.7 52.3 53.4---
2024-05-20 03:10 pm SE 5.8 5.8----30.04- 56.8 52.3 54.0---
2024-05-20 03:00 pm SE 3.9 5.8----30.05-0.03 56.8 52.3 54.0---
2024-05-20 02:50 pm SE 1.9 5.8 3.0 85.7 E30.05- 56.8 52.3 54.1---
2024-05-20 02:40 pm SE 1.9 3.9----30.05- 57.2 52.3 54.0---
2024-05-20 02:30 pm- 0.0 1.9----30.05- 57.7 52.2 54.0---
2024-05-20 02:20 pm- 0.0 0.0 3.0 85.8 E30.05- 57.9 52.3 54.3---
2024-05-20 02:10 pm- 0.0 0.0 3.0-5.8 E30.05- 57.2 52.2 54.1---
2024-05-20 02:00 pm- 0.0 1.9----30.06-0.01 56.5 52.0 54.0---
2024-05-20 01:50 pm SW 1.9 3.9 3.3 75.5 E30.06- 56.3 52.0 53.8---
2024-05-20 01:40 pm W 1.9 1.9----30.06- 56.3 51.8 54.0---
2024-05-20 01:30 pm W 1.9 3.9----30.06- 55.9 51.8 53.8---
2024-05-20 01:20 pmWNW 3.9 5.8 3.0 85.6 E30.07- 55.8 51.8 53.6---
2024-05-20 01:10 pmNNW 3.9 5.8 3.0-5.6 E30.07- 55.8 51.6 53.8---
2024-05-20 01:00 pmNNW 3.9 5.8----30.07+0.00 55.8 51.6 53.6---
2024-05-20 12:50 pmNNW 1.9 5.8 3.3 75.6 E30.08- 55.8 51.6 53.8---
2024-05-20 12:40 pm NW 1.9 3.9 3.3-5.6 E30.07- 55.8 51.6 53.6---
2024-05-20 12:30 pm- 0.0 1.9----30.07- 55.6 51.6 53.8---
2024-05-20 12:20 pmESE 1.9 3.9 3.0 85.2 E30.08- 55.0 51.6 53.4---
2024-05-20 12:10 pm- 0.0 1.9 3.0-5.2 E30.08- 54.9 51.6 53.2---
2024-05-20 12:00 pm- 0.0 1.9----30.08+0.00 54.7 51.6 53.4---
2024-05-20 11:50 am- 0.0 1.9 3.3 85.7 E30.08- 54.1 51.6 53.2---
2024-05-20 11:40 am E 1.9 3.9 3.3-5.7 E30.08- 53.6 51.6 52.7---
2024-05-20 11:30 am E 1.9 3.9----30.08- 53.6 51.6 52.7---
2024-05-20 11:20 am E 1.9 3.9 3.0 65.4 E30.08- 53.6 51.6 52.7---
2024-05-20 11:10 amENE 1.9 1.9 3.0-5.4 E30.08- 53.6 51.4 52.7---
2024-05-20 11:00 am E 1.9 3.9----30.08+0.02 53.4 51.3 52.5---
2024-05-20 10:50 am E 1.9 3.9 3.3 85.5 E30.08- 53.4 51.3 52.7---
2024-05-20 10:40 amENE 3.9 3.9 3.3-5.5 E30.07- 53.2 51.3 52.5---
2024-05-20 10:30 am E 3.9 5.8----30.07- 53.2 51.1 52.3---
2024-05-20 10:20 am E 3.9 3.9 3.0 75.4 E30.07- 53.1 51.1 52.2---
2024-05-20 10:10 am E 1.9 3.9 3.0-5.4 E30.08- 53.1 51.1 52.3---
2024-05-20 10:00 am NE 1.9 3.9----30.07+0.04 52.9 51.3 52.2---
2024-05-20 09:50 amNNE 1.9 3.9 3.3 65.5 E30.07- 52.9 51.1 52.3---
2024-05-20 09:40 amNNE 1.9 3.9 3.3-5.5 E30.07- 52.7 51.3 52.2---
2024-05-20 09:30 am NE 3.9 3.9----30.07- 52.5 51.1 52.0---
2024-05-20 09:20 amNNE 3.9 3.9 3.3 65.3 E30.08- 52.5 51.1 52.2---
2024-05-20 09:10 am NE 3.9 3.9 3.3-5.3 E30.08- 52.3 51.1 52.0---
2024-05-20 09:00 amENE 3.9 3.9----30.08+0.04 52.3 51.1 52.2---
2024-05-20 08:50 amNNE 1.9 3.9 3.3 85.2 E30.08- 52.3 51.1 52.2---
2024-05-20 08:40 amNNE 3.9 3.9----30.08- 52.2 51.1 52.0---
2024-05-20 08:30 am N 1.9 3.9----30.07- 52.0 51.1 51.8---
2024-05-20 08:20 am N 1.9 3.9 3.3 75.3 E30.07- 51.8 51.1 51.6---
2024-05-20 08:10 amNNE 3.9 3.9 3.3-5.3 E30.06- 51.8 51.4 51.6---
2024-05-20 08:00 amNNE 3.9 5.8----30.05+0.03 51.8 51.6 51.4---
2024-05-20 07:50 am NE 3.9 5.8 3.3 65.3 E30.05- 51.8 52.3 51.4---
2024-05-20 07:40 amNNE 3.9 3.9----30.04- 51.8 52.3 51.4---
2024-05-20 07:30 amNNE 3.9 3.9----30.04- 51.8 52.2 51.4---
2024-05-20 07:20 amNNE 3.9 5.8 3.6 75.2 E30.04- 51.8 52.2 51.4---
2024-05-20 07:10 amNNE 3.9 5.8 3.6-5.2 E30.03- 52.0 52.2 51.4---
2024-05-20 07:00 am NE 3.9 5.8----30.03+0.01 52.2 52.2 51.6---
2024-05-20 06:50 am NE 3.9 5.8 3.6 65.2 E30.03- 52.2 52.2 51.6---
2024-05-20 06:40 am NE 5.8 5.8----30.03- 52.2 52.3 51.6---
2024-05-20 06:30 am NE 5.8 5.8----30.03- 52.2 52.3 51.6---
2024-05-20 06:20 amENE 5.8 5.8 3.3 85.2 E30.03- 52.0 52.3 51.4---
2024-05-20 06:10 amENE 3.9 5.8 3.3-5.2 E30.03- 52.0 52.3 51.4---
2024-05-20 06:00 amENE 3.9 5.8----30.03+0.01 52.2 52.3 51.8---
2024-05-20 05:50 amENE 5.8 5.8 3.6 75.2 E30.03- 52.2 52.3 51.8---
2024-05-20 05:40 am NE 3.9 5.8----30.03- 52.3 52.3 52.0---
2024-05-20 05:30 am NE 3.9 5.8----30.02- 52.3 52.3 52.0---
2024-05-20 05:20 amENE 3.9 5.8 3.6 75.3 E30.03- 52.3 52.3 52.0---
2024-05-20 05:10 amENE 3.9 7.8 3.6-5.3 E30.03- 52.5 52.3 52.2---
2024-05-20 05:00 amENE 5.8 7.8----30.03+0.00 52.5 52.3 52.2---
2024-05-20 04:50 am NE 3.9 5.8 3.6 75.4 E30.03- 52.5 52.3 52.2---
2024-05-20 04:40 am NE 3.9 5.8 3.6-5.4 E30.03- 52.5 52.3 52.2---
2024-05-20 04:30 am NE 3.9 5.8----30.02- 52.5 52.3 52.2---
2024-05-20 04:20 am E 5.8 7.8 3.6 75.2 E30.02- 52.5 52.3 52.3---
2024-05-20 04:10 amENE 3.9 5.8 3.6-5.2 E30.02- 52.5 52.3 52.2---
2024-05-20 04:00 am NE 3.9 3.9----30.02-0.01 52.5 52.3 52.2---
2024-05-20 03:50 amNNE 3.9 5.8 3.3 65.2 E30.03- 52.7- 52.3---
2024-05-20 03:40 amNNE 3.9 5.8 3.3-5.2 E30.03- 52.5 52.3 52.2---
2024-05-20 03:30 am N 5.8 5.8----30.03- 52.5 52.3 52.2---
2024-05-20 03:20 am N 3.9 5.8 3.6 75.4 E30.02- 52.5 52.3 52.2---
2024-05-20 03:10 amNNE 5.8 7.8 3.6-5.4 E30.02- 52.5 52.3 52.2---
2024-05-20 03:00 amNNE 5.8 7.8----30.02-0.02 52.5 52.2 52.0---
2024-05-20 02:50 amNNE 5.8 7.8 3.3 75.3 E30.02- 52.7 51.8 52.2---
2024-05-20 02:40 amNNE 5.8 7.8 3.3-5.3 E30.03- 52.7 51.6 52.0---
2024-05-20 02:30 amNNE 7.8 9.7----30.03- 52.7 51.3 52.0---
2024-05-20 02:20 amNNE 7.8 9.7 3.0 75.3 E30.03- 52.7 51.1 52.0---
2024-05-20 02:10 amNNE 5.8 9.7 3.0-5.3 E30.03- 52.5 51.1 52.0---
2024-05-20 02:00 am N 5.8 7.8----30.03+0.00 52.5 51.3 51.8---
2024-05-20 01:50 am N 5.8 7.8 3.0 75.1 E30.03- 52.5 51.3 52.0---
2024-05-20 01:40 am N 5.8 7.8----30.04- 52.3 51.3 51.8---
2024-05-20 01:30 amNNW 5.8 7.8----30.04- 52.0 51.3 51.6---
2024-05-20 01:20 am N 5.8 5.8 3.0 75.2 E30.04- 52.0 51.4 51.4---
2024-05-20 01:10 am N 3.9 5.8 3.0-5.2 E30.04- 52.0 51.6 51.4---
2024-05-20 01:00 am N 3.9 5.8----30.03+0.00 52.2 51.8 51.6---
2024-05-20 12:50 amNNE 3.9 5.8 3.0 75.2 E30.03- 52.0 51.8 51.4---
2024-05-20 12:40 am N 1.9 1.9 3.0-5.2 E30.04- 51.6 51.8 51.1---
2024-05-20 12:30 amNNE 1.9 3.9----30.03- 51.8 51.8 51.3---
2024-05-20 12:20 am N 3.9 3.9 3.0 75.3 E30.03- 52.0 51.8 51.3---
2024-05-20 12:10 am N 3.9 3.9 3.0-5.3 E30.03- 52.0 51.8 51.3---
2024-05-20 12:00 am N 1.9 3.9----30.04+0.02 52.2 51.8 51.3---
2024-05-19 11:50 pmNNE 1.9 1.9 2.6 75.1 E30.05- 52.3 51.6 51.4---
2024-05-19 11:40 pm NE 1.9 1.9----30.04- 52.3 51.6 51.4---
2024-05-19 11:30 pmNNE 1.9 3.9----30.04- 52.3 51.6 51.3---
2024-05-19 11:20 pmENE 3.9 5.8 2.6 75.0 E30.04- 52.5 51.6 51.4---
2024-05-19 11:10 pm E 5.8 5.8 2.6-5.0 E30.03- 52.5 51.6 51.4---
2024-05-19 11:00 pm E 3.9 5.8----30.03+0.03 52.3 51.6 51.3---
2024-05-19 10:50 pm E 5.8 7.8 2.6 75.0 E30.03- 52.3 51.6 51.3---
2024-05-19 10:40 pm E 7.8 7.8 2.6-5.0 E30.03- 52.3 51.6 51.3---
2024-05-19 10:30 pm E 7.8 9.7----30.03- 52.3 51.6 51.1---
2024-05-19 10:20 pmESE 7.8 9.7 2.6 75.0 E30.04- 52.5 51.6 51.1---
2024-05-19 10:10 pm E 9.7 11.7 2.6-5.0 E30.03- 52.7 51.6 51.3---
2024-05-19 10:00 pm E 9.7 11.7----30.03+0.04 52.7 51.6 51.3---
2024-05-19 09:50 pm E 11.7 13.6 2.6 84.9 E30.03- 52.5 51.6 51.3---
2024-05-19 09:40 pm E 11.7 13.6 2.6-4.9 E30.03- 52.5 51.6 51.1---
2024-05-19 09:30 pm E 9.7 11.7----30.03- 52.5 51.6 51.3---
2024-05-19 09:20 pm E 9.7 11.7 2.6 74.9 E30.03- 52.5 51.6 51.3---
2024-05-19 09:10 pm E 9.7 11.7 2.6-4.9 E30.02- 52.5 51.6 51.3---
2024-05-19 09:00 pm E 11.7 13.6----30.02+0.04 52.5 51.6 51.3---
2024-05-19 08:50 pm E 11.7 13.6 2.6 84.9 E30.01- 52.5 51.6 51.1---
2024-05-19 08:40 pm E 9.7 11.7 2.6-4.9 E30.02- 52.3 51.6 51.1---
2024-05-19 08:30 pm E 9.7 9.7----30.01- 52.3 51.6 51.1---
2024-05-19 08:20 pm E 9.7 9.7 2.6 74.8 E30.01- 52.5 51.6 51.1---
2024-05-19 08:10 pm E 9.7 9.7 2.6-4.8 E30.01- 52.5 51.6 51.3---
2024-05-19 08:00 pm E 7.8 11.7----30.00+0.02 52.5 51.6 51.1---
2024-05-19 07:50 pm E 9.7 11.7 2.6 75.2 E30.01- 52.5 51.6 51.1---

Detailed Wave Summary
for 44025 as of (7:10 pm EDT)
2310 GMT on 05/20/2024:

These wave data are displayed in rounded times.

     

Click on the graph icon in the table below to see a time series plot of the last five days of that observation.

5-day plot - Significant Wave Height Significant Wave Height (WVHT): 3.0 ft
5-day plot - Swell Height Swell Height (SwH): 2.6 ft
5-day plot - Swell Period Swell Period (SwP): 7.7 sec
5-day plot - Swell Direction Swell Direction (SwD): E
5-day plot - Wind Wave Height Wind Wave Height (WWH): 1.0 ft
5-day plot - Wind Wave Period Wind Wave Period (WWP): 3.8 sec
5-day plot - Wind Wave Direction Wind Wave Direction (WWD):ENE
5-day plot - Wave Steepness Wave Steepness (STEEPNESS): AVERAGE
5-day plot - Average Wave Period Average Wave Period (APD): 5.7 sec
Previous observations
TIME
(EDT)
5-day plot - Wave Height
WVHT
ft
5-day plot - Swell Height
SwH
ft
5-day plot - Swell Period
SwP
sec
5-day plot - Swell Direction
SwD
 
5-day plot - Wind Wave Height
WWH
ft
5-day plot - Wind Wave Period
WWP
sec
5-day plot - Wind Wave Direction
WWD
 
5-day plot - Wave Steepness
STEEPNESS
 
5-day plot - Average Wave Period
APD
sec
2024-05-20 06:40 pm 3.0 2.6 6.7 E 0.7 4.0 E AVERAGE 5.8
2024-05-20 06:10 pm 2.6 2.6 7.7 E 1.0 4.0 E AVERAGE 5.7
2024-05-20 05:40 pm 3.0 3.0 7.7 E 0.7 4.0 E AVERAGE 5.9
2024-05-20 05:10 pm 3.0 3.0 8.3 E 1.0 3.8 E SWELL 5.8
2024-05-20 04:40 pm 3.0 2.6 7.1 E 1.0 3.8 E AVERAGE 5.6
2024-05-20 04:10 pm 3.3 3.0 6.7 E 1.0 3.8 E AVERAGE 5.8
2024-05-20 03:40 pm 3.0 2.6 7.7ENE 1.0 3.4 E AVERAGE 5.6
2024-05-20 03:10 pm 3.0 3.0 7.1 E 1.0 4.0 E AVERAGE 5.6
2024-05-20 02:40 pm 3.0 3.0 7.7 E 1.0 3.7 E AVERAGE 5.7
2024-05-20 02:10 pm 3.0 3.0 7.7 E 1.0 3.8 E AVERAGE 5.8
2024-05-20 01:40 pm 3.3 3.0 7.1 E 1.0 3.6 E AVERAGE 5.5
2024-05-20 01:10 pm 3.0 3.0 8.3 E 1.0 3.7 E SWELL 5.6
2024-05-20 12:40 pm 3.3 3.0 7.1 E 1.0 4.0 E AVERAGE 5.6
2024-05-20 12:10 pm 3.0 2.6 7.7 E 1.0 3.4 ESE AVERAGE 5.2
2024-05-20 11:40 am 3.3 3.0 7.7 E 1.0 4.0 E AVERAGE 5.7
2024-05-20 11:10 am 3.0 3.0 6.2 E 1.0 3.7 E STEEP 5.4
2024-05-20 10:40 am 3.3 3.0 7.7 E 1.0 3.7 E AVERAGE 5.5
2024-05-20 10:10 am 3.0 3.0 7.1 E 1.0 4.0 E AVERAGE 5.4
2024-05-20 09:40 am 3.3 3.0 5.9 E 1.0 3.6 E STEEP 5.5
2024-05-20 09:10 am 3.3 3.0 5.9 E 1.0 3.8 E STEEP 5.3
2024-05-20 08:40 am 3.3 3.0 7.7 E 1.3 3.7 E AVERAGE 5.2
2024-05-20 08:10 am 3.3 3.0 6.7 E 1.3 3.7 E AVERAGE 5.3
2024-05-20 07:40 am 3.3 3.3 6.2 E 1.3 3.8 E STEEP 5.3
2024-05-20 07:10 am 3.6 3.3 6.7 E 1.3 4.0 E STEEP 5.2
2024-05-20 06:40 am 3.6 3.3 5.9 E 1.3 3.7 E STEEP 5.2
2024-05-20 06:10 am 3.3 3.0 7.7 E 1.3 3.7 E AVERAGE 5.2
2024-05-20 05:40 am 3.6 3.3 7.1 E 1.3 4.0 E AVERAGE 5.2
2024-05-20 05:10 am 3.6 3.3 6.7 E 1.3 3.7 E STEEP 5.3
2024-05-20 04:40 am 3.6 3.3 7.1 E 1.3 3.8 ENE AVERAGE 5.4
2024-05-20 04:10 am 3.6 3.3 7.1 E 1.3 3.7 E AVERAGE 5.2
2024-05-20 03:40 am 3.3 3.0 5.6 E 1.0 3.6 E STEEP 5.2
2024-05-20 03:10 am 3.6 3.3 7.1 E 1.3 3.4 E AVERAGE 5.4
2024-05-20 02:40 am 3.3 3.0 6.7 E 1.3 4.0 E AVERAGE 5.3
2024-05-20 02:10 am 3.0 3.0 7.1 E 1.0 3.3 E AVERAGE 5.3
2024-05-20 01:40 am 3.0 3.0 7.1 E 1.0 4.0 ENE AVERAGE 5.1
2024-05-20 01:10 am 3.0 2.6 7.1 E 1.0 3.8 E AVERAGE 5.2
2024-05-20 12:40 am 3.0 2.6 7.1 E 1.0 3.7 E AVERAGE 5.2
2024-05-20 12:10 am 3.0 3.0 6.7 E 1.0 3.8 E AVERAGE 5.3
2024-05-19 11:40 pm 2.6 2.6 6.7 E 1.0 3.6 E AVERAGE 5.1
2024-05-19 11:10 pm 2.6 2.3 7.1 E 1.0 3.4 E AVERAGE 5.0
2024-05-19 10:40 pm 2.6 2.3 7.1 E 1.0 3.2 E AVERAGE 5.0
2024-05-19 10:10 pm 2.6 2.3 6.7 E 1.0 3.3 E N/A 5.0
2024-05-19 09:40 pm 2.6 2.0 7.7 E 1.6 5.3 ENE N/A 4.9
2024-05-19 09:10 pm 2.6 2.0 7.1 E 1.6 4.0 E N/A 4.9
2024-05-19 08:40 pm 2.6 2.0 7.7 E 1.6 5.0 ENE N/A 4.9
2024-05-19 08:10 pm 2.6 2.3 7.1 E 1.3 4.0 E N/A 4.8

Plot of wave energy versus frequency (and period)